Location: Le Vaud
(46.4779°N, 6.2346°E)
Time: 19:12:29
(UTC+00:00)

STARLINK-1121 - Pass Details

Date: 18 February 2020
Orbit: 548 x 551 km, 53.0° (Epoch: 06 April)

Event Time Altitude Azimuth Distance (km) Brightness Sun altitude
Exits shadow 04:20:28 10° 173° (S) 1,850 6.3 -23.7°
Reaches altitude 10° 04:20:29 10° 173° (S) 1,847 6.3 -23.7°
Drops below altitude 10° 04:26:10 10° 88° (E) 1,864 7.4 -22.8°
Enters shadow 05:25:04 -67° 238° (WSW) 12,312 10.4 -12.6°
Maximum altitude 06:02:36 85° 149° (SSE) 574 3.8 -6.2°
